Regional Weather Roundup
Issued by NWS

Home | Current Version | Previous Version | Text Only | Print | Product List | Glossary On
Versions: 1 2 3 4 5 6 7 8 9 10 11 12 13 14 15 16 17 18 19 20 21 22 23 24 25 26 27
000
ASUS45 KBOI 210010
RWRID
WEATHER ROUNDUP FOR IDAHO
NATIONAL WEATHER SERVICE BOISE ID
600 PM MDT SUN APR 20 2014

NOTE: "FAIR" INDICATES FEW OR NO CLOUDS BELOW 12000 FEET
WITH NO SIGNIFICANT WEATHER AND/OR OBSTRUCTIONS TO VISIBILITY

IDZ012-014-210100-
SOUTHWEST IDAHO


CITY           SKY/WX    TMP DP  RH WIND       PRES   REMARKS
BOISE          SUNNY     63  20  19 N9        30.21S
CALDWELL       SUNNY     64  21  19 N12       30.23S
MOUNTAIN HOME  SUNNY     66  14  13 NW18G25   30.19S
$$

IDZ016-017-210100-
SOUTHCENTRAL IDAHO


CITY           SKY/WX    TMP DP  RH WIND       PRES   REMARKS
BURLEY         MOSUNNY   59  12  15 W14G25    30.18S
JEROME         PTSUNNY   61  15  16 SW21      30.19F
TWIN FALLS     PTSUNNY   61  13  15 W17       30.20S
$$

IDZ019>023-210100-
SOUTHEAST IDAHO


CITY           SKY/WX    TMP DP  RH WIND       PRES   REMARKS
IDAHO FALLS    SUNNY     63  15  15 SW20G25   30.17R
POCATELLO      SUNNY     61  12  14 W16       30.18F
REXBURG        SUNNY     61  16  17 SW17G25   30.15S
$$

IDZ006-010-011-018-031-032-210100-
CENTRAL IDAHO MOUNTAINS


CITY           SKY/WX    TMP DP  RH WIND       PRES   REMARKS
MCCALL         SUNNY     54  20  26 VRB7G16   30.23R
HAILEY         MOSUNNY   63  19  19 S7        30.14S
STANLEY          N/A     50  10  20 NW5       30.23R
SALMON         MOSUNNY   61  16  17 N9        30.15R
CHALLIS        SUNNY     64   7  10 VRB5      30.13S
$$

IDZ002-004-006-007-026-210100-
NORTHERN IDAHO


CITY           SKY/WX    TMP DP  RH WIND       PRES   REMARKS
LEWISTON       SUNNY     64  23  21 NE7       30.22S
LOWELL           N/A     60  32  34 CALM      30.22S
COEUR D`ALENE  PTSUNNY   55  28  35 S8        30.24S
MULLAN PASS    SUNNY     40  16  37 W7        30.24S
$$



USA.gov is the U.S. government's official web portal to all federal, state and local government web resources and services.